[[{"header":{"parameterUnit":"m.s-1","parameterCategory":1,"la1":30.2991,"la2":30.254,"lo1":-89.0895,"lo2":-89.0444,"dy":0.0017,"dx":0.0017,"nx":28,"ny":28,"refTime":"2025-11-20T09:00:00:Z","depth":0,"parameterNumber":2,"parameterNumberName":"U-component_of_WINDS"},"data":[0,0,0,0,0,0,0,0,0,0,0,0,0,0,0,0,0,0,0,0,0,0,0,0,0,0,0,0,0,0,0,0,0,0,0,0,0,0,0,0,0,0,0,0,0,0,0,0,0,0,0,0,0,0,0,0,0,0,1.1558,1.1557,0,1.1468,1.1467,1.1466,1.1396,1.1396,1.1395,1.1394,1.1304,1.1303,1.1301,0,0,0,0,0,0,0,0,0,0,0,0,0,1.1674,1.1672,1.1559,1.1557,1.1556,1.1468,1.1467,1.1466,1.1397,1.1396,1.1395,1.1394,1.1305,1.1303,1.1301,0,0,0,0,0,0,0,0,0,0,0,0,0,1.1608,1.1671,1.1559,1.1511,1.1506,1.1468,1.1467,1.1465,1.1397,1.1396,1.1395,1.1394,1.1306,1.1303,1.1301,1.1304,0,0,1.1292,1.1291,0,0,0,0,0,0,0,0,1.1611,1.1603,1.1519,1.1514,1.1508,1.1442,1.1474,1.1411,1.1397,1.1438,1.1394,1.1393,1.1351,1.1345,1.133,1.13,1.1296,1.1292,1.1291,1.1289,1.1289,0,0,0,0,0,0,0,1.1616,1.1607,1.1523,1.1518,1.1511,1.1495,1.1484,1.1462,1.1402,1.1435,1.1429,1.1419,1.1348,1.1333,1.1328,1.1295,1.1292,1.129,1.1288,1.1287,1.1262,1.1263,0,0,0,0,0,0,1.1628,1.1611,1.1526,1.152,1.1558,1.1494,1.1482,1.1465,1.1402,1.1391,1.142,1.1416,1.1338,1.1331,1.1324,1.1324,1.1289,1.1287,1.1285,1.1261,1.1262,1.1263,0,0,0,0,0,0,1.163,1.1621,1.1529,1.1564,1.1551,1.1493,1.1474,1.1463,1.1448,1.1391,1.138,1.1416,1.1337,1.1328,1.1309,1.132,1.1286,1.1283,1.126,1.1262,1.1263,1.1323,0,0,0,0,0,0,1.1634,1.1622,1.1622,1.1565,1.155,1.1515,1.1474,1.1462,1.1443,1.1437,1.1383,1.1374,1.1335,1.1314,1.1307,1.1315,1.1281,1.1259,1.1261,1.1263,1.132,1.1326,1.1332,0,0,0,0,0,1.1638,1.1643,1.1623,1.1613,1.1548,1.1516,1.1508,1.1463,1.1444,1.1444,1.1408,1.1375,1.132,1.1312,1.1304,1.1312,1.1258,1.126,1.1262,1.1317,1.1325,1.1332,0,0,0,0,0,0,1.1705,1.1635,1.1611,1.1598,1.1563,1.1504,1.1503,1.1473,1.1443,1.1439,1.1385,1.1374,1.1361,1.1335,1.1328,1.1312,1.1285,1.1285,1.1329,1.1336,1.1342,1.1349,1.1279,0,0,0,0,0,1.1718,1.1696,1.1637,1.1631,1.1615,1.1562,1.1546,1.1515,1.1477,1.1463,1.1424,1.139,1.1365,1.1349,1.1323,1.1316,1.1303,1.1317,1.1323,1.1329,1.133,1.1324,1.1329,1.127,1.127,1.127,0,0,1.1744,1.1704,1.1694,1.1643,1.1613,1.1593,1.155,1.1531,1.1515,1.146,1.1439,1.1411,1.1369,1.1356,1.1348,1.1333,1.1343,1.1331,1.1336,1.1334,1.1327,1.1332,1.1337,1.1272,1.1272,1.1271,0,0,1.1783,1.175,1.1741,1.1711,1.1665,1.163,1.1628,1.1574,1.1552,1.1531,1.1488,1.147,1.1427,1.1399,1.1379,1.1407,1.1376,1.14,1.1431,1.1426,1.1431,1.1435,1.1444,1.1448,1.1401,1.1401,1.1402,0,1.1822,1.1789,1.174,1.1723,1.1702,1.165,1.164,1.1614,1.1563,1.155,1.1534,1.1479,1.1447,1.1427,1.1434,1.142,1.1416,1.1406,1.1434,1.1437,1.144,1.1449,1.1453,1.1405,1.1404,1.1404,1.1404,0,1.1839,1.1817,1.1815,1.1766,1.1745,1.1732,1.1682,1.1667,1.1637,1.1604,1.1583,1.1543,1.1507,1.15,1.1472,1.1476,1.1468,1.1444,1.1416,1.145,1.1457,1.146,1.1409,1.1408,1.1407,1.1406,0,0,1.1916,1.184,1.184,1.1817,1.1762,1.1745,1.173,1.1694,1.1682,1.1648,1.1634,1.16,1.1577,1.1554,1.1522,1.1518,1.1542,1.1493,1.1492,1.1504,1.1544,1.1562,1.1567,1.1521,1.1522,1.1522,1.1547,0,1.1945,1.1914,1.187,1.1854,1.1833,1.1784,1.177,1.1736,1.1705,1.1683,1.1649,1.1625,1.1597,1.1583,1.1576,1.154,1.1549,1.1538,1.1508,1.1508,1.152,1.1571,1.159,1.1616,1.155,1.155,1.1551,0,1.1975,1.1943,1.1925,1.1872,1.1862,1.1851,1.1814,1.1794,1.1755,1.1732,1.1707,1.1672,1.1654,1.1629,1.1604,1.1597,1.1582,1.1563,1.1563,1.1558,1.1531,1.1567,1.1623,1.1627,1.1555,1.1554,1.1554,0,1.2033,1.1986,1.1968,1.195,1.1888,1.1882,1.1856,1.1815,1.1796,1.1765,1.1752,1.172,1.1702,1.1678,1.1635,1.1621,1.1615,1.1586,1.1596,1.1597,1.1596,1.1597,1.165,1.1588,1.1588,1.1588,1.1588,0,1.207,1.2061,1.1993,1.1983,1.1971,1.1921,1.1911,1.188,1.1845,1.1828,1.1783,1.1769,1.1713,1.1692,1.1659,1.1643,1.1635,1.1617,1.1608,1.162,1.1623,1.161,1.1607,1.1589,1.1588,1.1588,1.1588,0,1.2132,1.2087,1.2064,1.2007,1.1993,1.1987,1.1938,1.1926,1.1893,1.1872,1.1864,1.1812,1.1784,1.1739,1.17,1.1677,1.1667,1.1653,1.168,1.1675,1.1687,1.1686,1.1734,1.1737,1.1674,1.1674,1.1675,0,1.2158,1.215,1.2092,1.2077,1.2052,1.2029,1.2009,1.196,1.1942,1.1896,1.189,1.1859,1.1832,1.1791,1.1749,1.1719,1.1703,1.1721,1.1698,1.1711,1.1702,1.1703,1.1702,1.1727,1.1728,1.1729,1.1729,0,1.221,1.2188,1.2161,1.2126,1.2104,1.2074,1.2043,1.2033,1.1977,1.1959,1.193,1.1909,1.1868,1.1838,1.1801,1.1775,1.1743,1.1737,1.1737,1.175,1.1766,1.1757,1.1695,1.1736,1.1735,1.1735,1.1734,1.1734,1.2254,1.2244,1.2202,1.2173,1.2144,1.2116,1.2102,1.2066,1.2041,1.2003,1.1975,1.1949,1.1909,1.1857,1.1833,1.1811,1.1797,1.1798,1.1798,1.1799,1.1803,1.177,1.1805,1.1804,1.1804,1.1804,1.1804,0,1.2303,1.2273,1.2247,1.2204,1.2182,1.2153,1.2117,1.21,1.2077,1.2042,1.2016,1.1983,1.1954,1.1911,1.1878,1.187,1.1854,1.1863,1.1862,1.1857,1.1818,1.1821,1.1876,1.1876,1.1876,1.1876,1.1876,1.1876,1.2325,1.2307,1.228,1.2247,1.2217,1.2189,1.2171,1.2145,1.2117,1.2082,1.2057,1.2029,1.1991,1.1955,1.1927,1.1915,1.1905,1.1918,1.1902,1.1866,1.186,1.1853,1.1855,1.1917,1.1917,1.1942,1.1942,1.1943]},{"header":{"parameterUnit":"m.s-1","parameterCategory":1,"la1":30.2991,"la2":30.254,"lo1":-89.0895,"lo2":-89.0444,"dy":0.0017,"dx":0.0017,"nx":28,"ny":28,"refTime":"2025-11-20T09:00:00:Z","depth":0,"parameterNumber":3,"parameterNumberName":"V-component_of_WINDS"},"data":[0,0,0,0,0,0,0,0,0,0,0,0,0,0,0,0,0,0,0,0,0,0,0,0,0,0,0,0,0,0,0,0,0,0,0,0,0,0,0,0,0,0,0,0,0,0,0,0,0,0,0,0,0,0,0,0,0,0,1.2881,1.2883,0,1.306,1.3062,1.3064,1.3149,1.3149,1.3149,1.3149,1.3339,1.3344,1.3349,0,0,0,0,0,0,0,0,0,0,0,0,0,1.2621,1.2625,1.2881,1.2883,1.2885,1.306,1.3062,1.3065,1.3149,1.3149,1.3149,1.3149,1.3337,1.3343,1.3349,0,0,0,0,0,0,0,0,0,0,0,0,0,1.276,1.2627,1.288,1.2948,1.2956,1.3059,1.3062,1.3065,1.3149,1.3149,1.3149,1.3149,1.3335,1.3343,1.335,1.3401,0,0,1.3374,1.3377,0,0,0,0,0,0,0,0,1.2752,1.277,1.2936,1.2944,1.2953,1.3082,1.304,1.3178,1.315,1.3076,1.3149,1.3149,1.3254,1.3268,1.3303,1.341,1.3418,1.3375,1.3379,1.3383,1.3385,0,0,0,0,0,0,0,1.2743,1.2763,1.2952,1.2939,1.2949,1.2973,1.2993,1.3067,1.3164,1.3083,1.3089,1.3109,1.3259,1.3295,1.3308,1.3421,1.3374,1.3381,1.3386,1.3389,1.3584,1.3584,0,0,0,0,0,0,1.2721,1.2754,1.2946,1.2957,1.285,1.2978,1.3,1.3041,1.3163,1.3182,1.3109,1.3112,1.3282,1.3299,1.3315,1.3385,1.3383,1.339,1.3394,1.3583,1.3584,1.3584,0,0,0,0,0,0,1.2715,1.2737,1.2939,1.2858,1.2885,1.2982,1.3028,1.3044,1.3081,1.3183,1.3202,1.3127,1.3282,1.3304,1.3379,1.3392,1.3393,1.34,1.3583,1.3583,1.3584,1.3523,0,0,0,0,0,0,1.2707,1.2734,1.2752,1.2857,1.2889,1.2998,1.3029,1.3048,1.3093,1.3099,1.3205,1.3223,1.3284,1.3367,1.3387,1.3403,1.3406,1.3582,1.3583,1.3584,1.3525,1.3522,1.352,0,0,0,0,0,1.2697,1.2728,1.2753,1.2775,1.2913,1.2998,1.3017,1.3084,1.3094,1.3114,1.3181,1.322,1.3388,1.3374,1.3397,1.3416,1.3581,1.3583,1.3584,1.3526,1.3522,1.352,0,0,0,0,0,0,1.2624,1.2743,1.2771,1.2837,1.2906,1.3012,1.304,1.3078,1.3148,1.3151,1.3234,1.3258,1.3327,1.3379,1.3362,1.3474,1.3489,1.3494,1.3437,1.3434,1.3432,1.3418,1.3413,0,0,0,0,0,1.2615,1.2671,1.2774,1.2822,1.2855,1.2941,1.2981,1.3027,1.3104,1.3134,1.3206,1.3281,1.3352,1.3396,1.3466,1.3533,1.356,1.3557,1.3555,1.3552,1.3557,1.36,1.3602,1.3588,1.3588,1.3588,0,0,1.2597,1.267,1.2701,1.2809,1.2868,1.2929,1.2966,1.3027,1.3073,1.3144,1.322,1.3276,1.3365,1.3438,1.3473,1.3484,1.3566,1.3554,1.3551,1.3557,1.3602,1.3603,1.3604,1.3589,1.3589,1.3589,0,0,1.2597,1.2655,1.2703,1.2763,1.2852,1.291,1.2921,1.3022,1.3062,1.3139,1.3194,1.3253,1.337,1.3433,1.348,1.3507,1.3547,1.3528,1.3515,1.3557,1.3558,1.3559,1.3572,1.3575,1.3532,1.3532,1.3531,0,1.2564,1.2654,1.2724,1.2783,1.283,1.2896,1.2948,1.3003,1.3111,1.3144,1.3154,1.3306,1.337,1.346,1.3467,1.3502,1.3521,1.3516,1.3551,1.3554,1.3556,1.3569,1.3573,1.3529,1.3529,1.3529,1.353,0,1.2612,1.2674,1.2702,1.2804,1.2855,1.291,1.2991,1.3035,1.3078,1.3135,1.3216,1.3296,1.3385,1.341,1.3452,1.3507,1.3511,1.3535,1.3552,1.3553,1.3567,1.3572,1.3525,1.3526,1.3527,1.3527,0,0,1.2568,1.2709,1.2718,1.2767,1.2872,1.2923,1.2983,1.3068,1.3106,1.318,1.3234,1.3334,1.3358,1.3412,1.3462,1.3498,1.3519,1.3519,1.3522,1.3518,1.3589,1.3571,1.3575,1.3546,1.3547,1.3548,1.3582,0,1.2583,1.269,1.2756,1.2838,1.2898,1.2964,1.3017,1.3089,1.3145,1.3208,1.3271,1.3342,1.3366,1.34,1.3438,1.3508,1.3535,1.3506,1.3601,1.3603,1.3577,1.3582,1.3563,1.3591,1.3588,1.3589,1.3589,0,1.2614,1.2685,1.2772,1.2874,1.2902,1.2948,1.3034,1.3091,1.3176,1.3215,1.3276,1.3328,1.3398,1.3409,1.3509,1.3488,1.3531,1.3572,1.3575,1.3587,1.3597,1.3597,1.3602,1.3606,1.3598,1.3597,1.3597,0,1.2576,1.2694,1.2762,1.2802,1.2921,1.2953,1.3004,1.3089,1.3138,1.3214,1.3247,1.3331,1.3377,1.3443,1.3518,1.3518,1.3611,1.3627,1.3649,1.3647,1.3666,1.3664,1.3679,1.3691,1.3691,1.3691,1.369,0,1.2587,1.2638,1.2747,1.2789,1.2851,1.2928,1.2988,1.3046,1.3121,1.3179,1.3241,1.3294,1.3389,1.3455,1.3514,1.359,1.361,1.3646,1.3662,1.3642,1.3637,1.3672,1.3672,1.3692,1.3691,1.3691,1.3691,0,1.2554,1.2629,1.2708,1.2815,1.2844,1.2884,1.2978,1.3024,1.3084,1.3157,1.3178,1.3275,1.3356,1.3437,1.3547,1.3587,1.3663,1.3682,1.3633,1.3642,1.366,1.3658,1.37,1.3711,1.3712,1.3712,1.3711,0,1.2556,1.2598,1.2709,1.2751,1.2802,1.2868,1.2918,1.2998,1.3048,1.3151,1.3185,1.3271,1.3343,1.3472,1.3554,1.3639,1.3663,1.3672,1.3676,1.3656,1.3666,1.3664,1.367,1.3669,1.3669,1.3669,1.3668,0,1.2553,1.2589,1.2657,1.274,1.2797,1.2867,1.2938,1.297,1.3065,1.3119,1.3202,1.3258,1.3371,1.3457,1.3553,1.3611,1.3657,1.3666,1.3676,1.3657,1.3628,1.3647,1.3629,1.3665,1.3665,1.3666,1.3666,1.3666,1.254,1.2581,1.2667,1.2742,1.2805,1.2871,1.292,1.2987,1.3057,1.3154,1.3198,1.3283,1.3372,1.3505,1.3562,1.3633,1.3645,1.3658,1.3662,1.3665,1.3661,1.3615,1.365,1.3651,1.3651,1.3651,1.3651,0,1.2542,1.2601,1.267,1.2768,1.2829,1.2865,1.2947,1.2996,1.3069,1.3147,1.3218,1.3316,1.3401,1.3491,1.3582,1.3621,1.3645,1.3643,1.3641,1.3655,1.3644,1.3628,1.3622,1.3622,1.3622,1.3622,1.3622,1.3622,1.255,1.2623,1.2669,1.2775,1.2835,1.2917,1.2961,1.3025,1.3088,1.3194,1.3264,1.3321,1.3406,1.3504,1.3585,1.361,1.3642,1.3634,1.3664,1.3653,1.3655,1.3657,1.3642,1.3639,1.3639,1.367,1.367,1.367]}]]